Temperature
18 19 20 20 20 18 18 17 17 17 17 18 18 18 20 21 21 21 20 20 20 19 19 18 18 17 17 16 16 15 15 15 14 14 14 13 13 13 13 12 12 12 12 12
19 20 19 20 20 19 18 18 17 18 18 18 19 19 19 20 20 20 21 20 20 19 19 18 18 17 17 16 16 15 15 15 14 14 14 14 13 13 13 13 12 12 12 12
18 18 20 19 20 20 19 19 18 18 19 19 18 18 20 21 21 21 21 21 20 19 19 18 18 17 17 16 16 16 15 15 15 14 14 14 13 13 13 13 13 12 12 12
16 19 20 19 19 20 19 19 18 18 18 18 19 20 21 22 22 22 21 21 20 19 19 18 18 17 17 16 16 16 15 15 15 14 14 14 13 13 13 13 13 13 12 12
15 17 18 18 19 19 19 19 19 18 18 18 19 19 20 22 22 22 21 21 20 19 19 18 18 17 17 16 16 16 15 15 15 14 14 14 14 13 13 13 13 13 12 12
14 17 18 19 20 20 20 20 20 19 18 18 18 17 18 22 22 21 21 20 20 19 18 18 17 17 17 16 16 16 15 15 15 14 14 14 14 13 13 13 13 13 13 12
14 16 16 18 19 20 20 19 21 20 20 19 18 20 22 22 21 21 20 20 19 19 18 18 17 17 16 16 16 15 15 15 14 14 14 14 14 13 13 13 13 13 13 13
13 15 17 19 18 18 19 21 21 21 21 21 21 21 22 21 21 20 20 19 19 18 18 17 17 17 16 16 16 15 15 15 14 14 14 14 13 13 13 13 13 13 13 13
14 16 18 19 19 21 21 21 22 22 22 22 22 21 21 21 20 20 20 19 18 18 18 17 17 16 16 16 15 15 15 15 14 14 14 14 13 13 13 13 13 13 13 13
14 15 17 19 20 21 21 21 22 22 22 22 22 22 21 21 20 20 19 19 18 18 17 17 16 16 16 16 15 15 15 15 14 14 14 13 13 13 13 12 12 12 12 12
14 15 17 21 21 21 21 21 22 22 22 22 22 22 21 21 20 19 19 18 18 17 17 17 16 16 16 16 15 15 15 14 14 14 13 13 13 12 12 12 12 12 12 12
15 17 16 19 21 20 20 21 21 21 21 22 22 22 21 20 20 19 19 18 17 17 17 16 16 16 16 15 15 15 14 14 14 13 13 12 12 12 11 11 11 11 11 11
18 18 18 19 19 20 20 20 21 21 21 21 21 21 21 20 20 19 18 18 17 17 16 16 16 15 15 15 15 14 14 14 13 13 12 12 12 11 11 11 11 11 11 11
17 17 17 18 18 19 19 20 20 20 20 20 20 20 20 20 19 19 18 18 17 17 16 16 15 15 15 14 14 14 13 13 13 12 12 11 11 11 11 11 11 10 10 10
17 16 16 17 18 18 19 19 19 19 20 20 20 20 19 19 19 18 18 17 16 16 15 15 15 14 14 14 13 13 13 12 12 11 11 11 10 10 10 10 10 10 10 10
16 16 16 16 17 17 18 18 18 19 19 19 19 19 19 18 18 18 17 16 16 16 15 15 14 14 13 13 13 12 12 11 11 11 10 10 10 9 9 9 9 9 9 9
14 14 15 15 16 17 17 17 18 18 18 18 18 18 18 17 17 16 16 16 15 15 14 14 14 13 13 12 12 11 11 11 10 10 10 9 9 9 8 8 8 8 8 8
13 14 14 14 15 16 16 17 17 17 18 18 18 17 17 17 16 16 16 15 14 13 13 13 12 12 12 11 11 11 10 10 9 9 9 8 8 8 8 8 7 7 7 7
13 14 14 15 15 15 16 16 16 17 17 17 17 16 16 16 16 15 15 14 13 13 12 12 12 11 11 11 10 10 9 9 9 8 8 8 7 7 7 7 7 6 6 6
13 13 14 14 15 15 15 15 16 16 16 16 16 16 15 15 14 14 14 13 13 13 12 11 11 10 10 10 9 9 9 8 8 8 7 7 7 6 6 6 6 6 5 5
12 12 13 13 14 14 14 14 14 15 15 15 15 15 15 14 14 13 13 12 11 11 11 10 10 10 9 9 9 8 8 8 7 7 7 6 6 6 6 5 5 5 5 5
11 11 12 12 12 13 13 13 13 13 14 14 14 14 14 13 13 12 12 11 11 10 10 9 9 9 9 8 8 8 7 7 7 6 6 6 6 5 5 5 4 4 4 4
10 11 11 11 11 12 12 12 12 12 13 13 13 13 13 13 12 11 10 10 9 9 9 9 8 8 8 8 7 7 7 6 6 6 5 5 5 5 4 4 4 4 4 3
10 10 10 10 11 11 11 11 11 11 11 12 12 12 12 11 11 10 10 9 9 8 8 8 7 7 7 7 7 6 6 6 6 5 5 5 5 4 4 4 3 3 3 3
9 9 9 10 10 10 10 10 10 10 10 10 10 10 10 10 10 9 9 9 8 8 7 7 7 6 6 6 6 6 6 5 5 5 5 4 4 4 4 3 3 3 3 2
8 9 9 9 9 9 9 9 9 9 9 9 9 9 9 9 9 9 8 8 8 7 7 6 6 6 6 6 5 5 5 5 5 4 4 4 4 3 3 3 2 2 2 2
8 8 8 8 8 9 9 9 9 9 9 9 9 9 8 8 8 8 7 7 7 6 6 6 6 5 5 5 5 5 5 4 4 4 4 3 3 3 3 2 2 2 2 1
Wind_Speed
6 6 3 4 5 7 7 8 9 9 9 12 10 9 8 7 6 6 6 6 7 7 6 5 5 5 5 4 3 2 2 2 3 3 3 3 4 4 4 4 4 4 4 5
3 3 3 4 6 7 7 6 8 7 10 11 7 4 5 7 8 8 8 8 7 7 7 7 7 6 5 5 4 3 3 3 3 3 3 3 3 4 4 4 4 4 4 5
4 5 3 5 7 7 6 7 9 10 11 6 5 7 8 9 10 10 9 8 8 8 8 8 7 7 6 5 3 3 3 3 3 2 3 3 3 3 4 4 3 4 4 4
1 2 5 9 4 5 6 8 9 9 8 7 8 6 4 6 9 10 9 8 8 7 7 6 5 5 5 4 3 3 3 3 3 3 3 3 3 4 4 3 3 3 4 4
3 2 7 10 5 4 5 7 7 9 8 4 2 3 3 5 7 9 8 8 7 7 6 6 6 5 5 4 3 2 2 3 3 3 3 3 3 4 3 3 3 3 3 4
4 3 5 9 6 2 3 6 6 6 6 5 7 3 6 5 6 6 6 6 6 6 6 6 5 6 7 4 3 3 3 3 3 2 2 3 4 4 3 2 3 4 4 4
5 5 8 9 5 3 3 7 5 5 6 9 9 7 4 5 5 6 6 7 7 8 6 5 6 7 6 4 3 4 2 1 1 1 2 2 3 2 3 3 3 4 4 5
5 4 8 4 2 5 7 5 4 4 6 8 7 3 4 6 7 8 8 7 8 8 6 4 6 7 6 4 3 2 2 1 1 2 2 1 2 3 3 3 3 4 4 5
8 8 6 3 6 7 4 5 5 4 5 7 6 6 6 6 7 8 8 8 7 8 7 4 4 6 6 3 2 3 3 1 1 2 2 2 2 2 3 2 2 3 3 4
5 9 8 8 7 6 5 6 7 6 5 7 7 8 8 7 8 8 7 7 7 8 8 5 4 4 4 3 4 5 3 1 1 2 2 3 2 2 2 2 2 3 3 4
6 9 9 8 6 5 5 6 6 5 5 7 8 8 9 9 9 9 7 7 7 8 8 6 5 4 2 3 5 5 3 2 2 2 2 2 2 2 1 1 1 1 2 2
8 8 6 10 9 6 6 8 7 6 5 5 8 10 9 9 9 9 9 8 8 8 7 6 6 4 3 3 6 6 4 2 1 1 1 2 2 3 4 3 6 7 6 4
10 8 7 10 9 7 7 9 8 8 8 7 7 8 9 8 8 9 9 10 10 9 8 7 6 5 3 4 5 6 5 3 2 2 2 2 2 2 3 5 6 8 9 10
7 5 7 8 9 10 9 8 6 6 6 6 6 7 8 7 8 10 10 10 10 9 8 8 7 5 3 4 6 6 4 4 4 2 2 2 2 2 2 3 4 5 7 10
8 8 10 10 10 8 6 4 3 4 4 4 5 8 9 10 11 10 9 10 10 9 8 8 7 5 4 6 7 6 5 3 3 3 2 2 2 3 3 3 3 3 4 6
10 8 8 8 9 8 6 5 6 7 6 6 6 8 9 9 9 9 10 11 12 11 9 9 7 5 5 7 7 5 4 7 6 4 3 3 3 3 3 3 4 4 5 5
6 7 7 8 9 9 8 8 9 8 7 7 8 8 9 10 10 9 9 9 9 9 9 9 7 6 7 7 7 5 4 5 7 5 3 3 3 3 2 3 3 3 3 5
8 9 9 9 9 10 9 8 7 7 7 6 8 10 12 13 13 12 11 10 9 8 6 7 7 7 7 7 6 5 5 4 4 4 3 3 3 2 2 2 3 3 3 4
7 8 8 8 8 7 7 6 5 5 5 7 10 11 11 11 12 12 12 12 12 10 7 7 12 9 7 8 8 5 6 5 4 3 3 4 3 2 2 2 2 2 2 2
7 7 8 7 6 5 5 4 2 3 5 7 9 9 9 10 11 12 12 9 7 7 8 9 9 7 7 7 9 6 6 6 5 4 3 3 3 2 2 1 1 1 2 2
8 8 8 8 7 6 4 2 2 3 5 7 9 11 11 11 11 12 11 7 5 6 9 12 8 6 6 7 9 6 6 5 5 4 3 3 2 2 1 1 1 1 1 1
7 7 7 7 6 6 5 2 1 3 5 5 7 9 11 11 11 9 7 7 8 11 8 6 6 8 10 9 6 6 5 5 4 4 3 3 3 2 1 1 0 1 1 1
6 5 6 5 5 4 4 3 2 3 4 6 8 10 11 10 10 10 7 5 7 13 9 6 9 13 12 7 6 6 5 5 4 4 3 3 3 2 2 1 1 1 1 2
6 6 5 5 4 3 2 2 2 2 3 4 5 8 9 9 6 4 6 12 14 13 7 9 13 13 11 6 5 5 5 4 4 4 3 3 2 2 2 2 1 2 2 2
5 5 4 4 3 2 1 1 2 3 3 3 4 5 5 6 7 7 7 10 14 13 7 10 13 12 8 6 5 5 4 4 4 4 3 3 3 3 2 2 2 2 2 2
5 4 4 4 3 2 1 1 2 2 3 3 3 3 4 5 7 7 7 9 11 12 8 6 6 8 6 6 5 5 4 4 3 3 4 3 3 3 2 2 2 2 2 2
5 4 3 3 3 2 2 3 3 4 4 5 4 4 5 6 6 7 8 7 7 7 6 5 5 5 5 5 5 4 4 4 4 4 4 3 3 3 3 3 2 2 2 2
Wind_Direction
238 247 238 235 218 182 188 191 195 230 231 251 248 234 231 220 203 192 197 198 198 200 204 205 210 215 215 228 226 208 209 244 269 284 298 311 321 324 330 341 342 337 345 347
294 288 253 256 253 211 215 208 218 242 258 251 248 219 215 209 195 197 203 205 203 199 196 202 207 209 210 223 219 199 213 243 269 293 304 310 314 323 330 333 336 345 347 343
276 303 357 279 247 219 221 212 195 220 244 247 219 219 216 208 199 203 205 202 197 196 199 203 204 199 203 213 202 198 223 248 267 279 291 298 311 327 325 322 331 339 337 340
226 15 254 250 258 219 229 248 220 229 246 228 223 223 221 199 195 205 202 197 196 193 192 194 190 186 185 177 180 199 228 254 268 271 279 294 311 311 309 309 313 315 322 328
142 218 281 296 283 197 206 270 234 224 244 229 161 88 311 219 196 201 197 190 188 183 175 168 172 168 151 154 162 184 232 258 267 263 273 291 300 298 298 304 310 305 303 322
143 176 242 256 269 218 144 284 263 209 214 172 131 150 248 218 179 179 170 163 159 150 139 147 159 145 142 154 162 211 239 254 266 260 264 278 285 291 293 291 293 305 312 316
175 212 257 257 277 125 154 252 274 205 194 174 185 202 209 157 152 153 149 148 143 137 139 153 149 140 144 155 198 229 231 248 315 303 276 278 295 302 305 310 319 324 322 324
156 189 255 271 145 183 227 266 263 224 198 192 206 191 161 157 153 147 142 139 139 135 135 135 143 144 150 181 218 186 141 111 348 338 334 348 343 337 339 343 342 337 339 338
191 216 243 252 232 255 254 262 256 238 226 190 185 189 177 168 162 157 151 147 143 139 132 125 140 149 159 195 169 137 119 96 12 10 7 9 15 357 359 4 360 343 346 339
250 269 271 273 263 265 247 250 263 247 225 188 193 189 180 171 167 162 157 153 146 138 138 143 149 149 164 157 139 127 121 100 57 42 16 14 23 25 24 4 354 348 345 334
264 281 305 298 275 279 287 280 274 262 227 205 189 190 184 178 176 171 162 155 150 149 150 153 146 143 145 140 133 126 119 100 71 52 31 15 17 18 11 11 48 11 333 323
245 252 246 273 287 290 287 283 269 252 244 222 196 192 184 182 178 169 162 154 150 150 150 149 141 136 130 131 135 131 123 108 90 70 46 33 19 14 18 29 34 42 37 28
245 265 253 266 284 280 271 272 268 244 227 222 209 189 180 177 172 163 159 158 160 159 155 148 141 136 134 133 131 132 135 131 108 88 69 49 42 36 7 5 20 27 26 26
256 275 279 276 280 285 280 277 270 252 233 210 193 177 167 164 160 164 169 168 158 149 147 145 140 141 144 136 131 130 129 121 117 102 86 69 56 46 43 32 16 3 7 17
266 251 253 273 284 286 287 281 264 253 232 207 179 172 169 168 172 174 164 152 145 144 147 145 142 148 142 132 129 128 125 121 110 98 85 76 67 61 56 49 37 15 6 8
279 276 269 276 280 285 284 264 246 243 224 206 190 182 175 167 159 153 152 153 152 157 158 152 152 157 144 134 128 124 127 126 118 105 89 77 70 68 61 55 46 35 23 7
282 286 285 290 284 279 267 252 241 234 218 205 194 172 153 145 144 149 154 155 152 151 153 154 156 150 142 139 135 133 126 125 120 106 98 94 87 80 72 66 57 44 25 23
260 263 265 267 271 273 273 265 247 227 215 205 172 160 160 161 164 163 156 143 134 132 146 154 150 142 139 138 136 133 128 123 120 117 110 101 97 89 81 70 54 41 17 20
301 294 291 283 277 269 269 266 246 220 196 172 169 172 172 168 161 155 151 150 152 158 171 168 155 144 141 149 141 131 130 126 119 111 109 105 93 81 78 74 57 37 21 16
328 324 321 317 313 298 283 278 240 193 179 168 163 158 157 159 156 153 153 158 168 166 161 158 147 143 145 151 142 133 134 133 131 125 116 111 108 94 80 73 61 39 24 13
341 339 338 335 329 323 305 275 190 176 169 165 165 166 162 157 155 153 152 157 171 153 155 157 150 147 147 149 142 135 136 136 137 138 137 135 130 120 102 81 61 36 8 348
338 339 338 338 338 335 332 331 143 145 147 152 152 149 148 150 151 148 151 159 162 159 151 150 150 159 160 149 138 142 143 143 145 147 151 155 155 157 163 167 215 310 316 315
329 329 331 334 334 329 344 13 69 130 147 155 156 158 158 157 158 156 161 164 158 163 156 159 166 166 160 149 145 149 151 154 157 162 166 170 174 178 186 204 229 264 293 305
327 329 331 334 345 357 0 3 44 96 125 138 151 154 151 147 149 157 146 159 165 163 161 168 171 169 161 148 150 153 158 162 165 168 170 173 179 186 195 205 230 260 278 295
319 322 327 334 335 315 293 45 77 91 104 118 131 141 147 152 156 158 151 157 163 159 158 173 175 171 158 151 157 161 167 173 174 173 177 180 189 196 204 214 228 251 271 285
308 309 303 292 277 262 237 187 167 163 148 144 142 141 136 133 137 144 150 157 162 162 161 164 166 163 156 160 165 169 173 178 185 184 183 188 194 197 205 218 237 247 264 280
299 297 298 301 289 252 217 199 193 193 183 171 164 159 149 143 143 148 149 150 154 157 158 160 162 164 165 167 170 174 176 178 181 184 185 187 190 196 204 212 223 241 265 281
Height
1497 1494 1493 1493 1493 1498 1501 1504 1511 1504 1501 1489 1482 1480 1479 1481 1482 1484 1486 1488 1490 1492 1494 1496 1498 1499 1500 1501 1501 1500 1500 1499 1498 1497 1495 1493 1492 1490 1488 1486 1484 1482 1480 1477
1495 1491 1492 1492 1489 1491 1494 1494 1497 1495 1492 1477 1476 1476 1477 1478 1479 1481 1483 1486 1488 1490 1492 1494 1496 1497 1498 1499 1499 1499 1498 1498 1497 1496 1494 1493 1491 1490 1488 1486 1484 1482 1480 1478
1504 1496 1492 1497 1486 1485 1486 1484 1486 1489 1481 1472 1474 1473 1473 1474 1476 1478 1480 1483 1485 1488 1490 1492 1494 1495 1496 1497 1497 1497 1497 1496 1496 1495 1493 1492 1491 1489 1488 1486 1484 1482 1480 1478
1506 1501 1506 1492 1477 1477 1479 1477 1476 1474 1471 1469 1469 1469 1470 1472 1474 1476 1478 1481 1483 1485 1488 1490 1492 1493 1494 1495 1495 1495 1495 1495 1494 1493 1492 1491 1490 1488 1487 1485 1484 1482 1480 1478
1510 1508 1503 1487 1475 1475 1478 1475 1468 1468 1466 1466 1467 1469 1469 1470 1472 1474 1476 1479 1481 1483 1486 1488 1490 1491 1492 1493 1494 1494 1494 1493 1493 1492 1491 1490 1489 1487 1486 1484 1483 1482 1480 1478
1510 1506 1506 1487 1471 1469 1474 1477 1463 1463 1463 1465 1467 1474 1470 1468 1470 1472 1474 1477 1479 1481 1484 1486 1488 1489 1490 1491 1492 1492 1492 1492 1491 1491 1490 1489 1487 1486 1485 1483 1482 1481 1479 1478
1506 1505 1496 1475 1469 1470 1483 1478 1462 1460 1460 1462 1463 1464 1464 1466 1468 1470 1473 1475 1478 1480 1482 1484 1486 1487 1488 1489 1490 1491 1491 1490 1490 1489 1488 1487 1486 1485 1483 1482 1481 1479 1478 1477
1505 1504 1495 1469 1469 1473 1471 1462 1460 1459 1458 1459 1460 1462 1463 1464 1466 1469 1471 1473 1476 1478 1480 1482 1484 1486 1487 1488 1488 1489 1489 1489 1488 1488 1487 1486 1485 1483 1482 1480 1479 1478 1476 1475
1488 1483 1470 1467 1466 1465 1463 1461 1459 1458 1457 1458 1459 1460 1461 1463 1465 1467 1469 1472 1474 1476 1479 1480 1482 1484 1485 1486 1487 1487 1487 1487 1487 1486 1485 1484 1483 1482 1480 1479 1477 1476 1475 1474
1480 1470 1465 1463 1462 1461 1460 1459 1457 1457 1456 1456 1457 1458 1460 1461 1463 1465 1468 1470 1472 1474 1476 1478 1480 1482 1483 1484 1485 1485 1486 1485 1485 1484 1483 1482 1481 1480 1479 1477 1476 1475 1474 1472
1475 1467 1462 1458 1458 1458 1457 1456 1455 1454 1454 1454 1455 1456 1457 1459 1461 1463 1466 1468 1470 1472 1474 1476 1478 1480 1481 1482 1483 1483 1483 1483 1483 1482 1482 1481 1480 1479 1477 1476 1475 1474 1472 1471
1470 1463 1462 1458 1456 1456 1454 1453 1452 1451 1451 1451 1452 1453 1454 1456 1459 1461 1463 1465 1468 1470 1472 1474 1476 1477 1479 1480 1481 1481 1481 1481 1481 1481 1480 1479 1479 1478 1476 1475 1474 1472 1471 1470
1460 1458 1457 1455 1453 1451 1450 1449 1448 1447 1447 1447 1448 1450 1451 1453 1456 1458 1460 1463 1465 1467 1470 1472 1473 1475 1476 1477 1478 1479 1479 1479 1479 1479 1478 1478 1477 1476 1475 1475 1473 1472 1470 1469
1455 1454 1451 1449 1448 1446 1445 1444 1443 1443 1443 1443 1444 1446 1448 1450 1452 1454 1457 1459 1462 1465 1467 1469 1471 1472 1474 1475 1476 1476 1477 1477 1477 1477 1476 1476 1475 1474 1474 1473 1472 1470 1469 1468
1448 1448 1446 1444 1442 1441 1440 1439 1438 1437 1438 1438 1440 1441 1443 1445 1447 1450 1453 1456 1459 1461 1464 1466 1468 1470 1471 1472 1473 1474 1474 1475 1475 1475 1475 1474 1474 1473 1472 1471 1470 1469 1468 1467
1442 1441 1440 1438 1436 1435 1434 1433 1433 1432 1433 1434 1435 1437 1439 1442 1444 1447 1449 1452 1455 1457 1460 1462 1465 1467 1468 1470 1471 1471 1472 1473 1473 1473 1473 1473 1472 1472 1471 1470 1469 1468 1467 1466
1437 1434 1433 1431 1430 1428 1428 1427 1427 1427 1428 1429 1431 1433 1435 1438 1440 1443 1445 1449 1452 1455 1457 1460 1462 1464 1465 1467 1468 1469 1470 1471 1471 1471 1471 1471 1471 1470 1470 1469 1468 1467 1466 1465
1432 1431 1429 1427 1425 1423 1422 1421 1421 1422 1423 1424 1426 1428 1430 1433 1435 1439 1442 1445 1448 1452 1454 1457 1459 1461 1463 1464 1466 1467 1468 1469 1469 1470 1470 1470 1470 1469 1469 1468 1467 1466 1465 1464
1426 1425 1423 1421 1420 1418 1417 1416 1416 1416 1418 1420 1421 1423 1426 1429 1432 1436 1439 1442 1444 1448 1451 1454 1456 1458 1460 1462 1463 1465 1466 1467 1467 1468 1468 1468 1468 1468 1468 1467 1466 1465 1464 1463
1422 1420 1418 1416 1415 1414 1412 1412 1411 1412 1413 1416 1418 1420 1423 1426 1429 1432 1436 1439 1442 1445 1448 1451 1453 1456 1458 1460 1461 1463 1464 1465 1465 1466 1466 1467 1467 1466 1466 1466 1465 1464 1463 1462
1419 1417 1415 1413 1411 1410 1409 1409 1408 1409 1410 1412 1414 1416 1419 1423 1426 1429 1432 1436 1440 1443 1446 1449 1451 1454 1456 1458 1459 1461 1462 1463 1464 1464 1465 1465 1465 1465 1464 1464 1463 1462 1461 1460
1418 1416 1414 1412 1410 1408 1407 1406 1406 1407 1408 1410 1412 1414 1417 1420 1423 1427 1430 1434 1437 1441 1444 1446 1449 1452 1454 1455 1457 1459 1460 1461 1462 1462 1463 1463 1463 1463 1463 1462 1461 1460 1459 1458
1417 1415 1413 1411 1409 1407 1406 1405 1405 1406 1407 1408 1410 1412 1415 1418 1421 1424 1428 1432 1435 1438 1442 1444 1447 1450 1452 1453 1455 1456 1458 1459 1460 1460 1461 1461 1461 1461 1461 1460 1459 1458 1457 1455
1415 1413 1411 1409 1408 1406 1405 1405 1405 1406 1407 1408 1409 1412 1414 1417 1420 1424 1427 1430 1434 1437 1440 1442 1445 1447 1449 1451 1453 1454 1455 1457 1457 1458 1458 1459 1459 1458 1458 1457 1456 1455 1453 1452
1413 1411 1409 1408 1407 1406 1405 1405 1405 1406 1406 1408 1409 1411 1414 1417 1420 1423 1426 1429 1431 1435 1438 1440 1443 1445 1447 1449 1451 1452 1453 1454 1455 1455 1456 1456 1456 1455 1455 1454 1453 1451 1450 1448
1411 1410 1408 1407 1406 1405 1405 1405 1405 1405 1406 1407 1409 1411 1413 1416 1419 1422 1424 1427 1430 1433 1435 1438 1441 1443 1445 1447 1448 1450 1451 1451 1452 1453 1453 1453 1453 1452 1452 1450 1449 1448 1446 1444
1409 1407 1406 1405 1404 1404 1404 1404 1404 1404 1405 1406 1408 1410 1412 1414 1417 1420 1423 1425 1428 1431 1433 1436 1438 1441 1442 1444 1446 1447 1448 1449 1449 1450 1450 1449 1449 1449 1448 1447 1445 1444 1442 1439